Ithaca, NY

2:33 AM EDT on April 29, 2017 (GMT -0400)
Tompkins County

Weather History for KITH - December, 2012

Change the Weather History Date:

Monday, December 17, 2012

  Actual Average Record
Temperature  
Mean Temperature 40 °F -  
Max Temperature 43 °F 34 °F 57 °F (2000)
Min Temperature 38 °F 21 °F -3 °F (1951)
Degree Days  
Heating Degree Days 24    
Moisture  
Dew Point 39 °F    
Average Humidity 95    
Maximum Humidity 100    
Minimum Humidity 89    
Precipitation  
Precipitation 0.68 in - - ()
Sea Level Pressure  
Sea Level Pressure 29.76 in    
Wind  
Wind Speed 10 mph (SE)    
Max Wind Speed 15 mph    
Max Gust Speed 20 mph    
Visibility 8 miles    
Events Rain    
Averages and records for this station are not official NWS values.
T = Trace of Precipitation, MM = Missing Value Source: NWS Daily Summary

Daily Weather History Graph

Daily Weather History Graph

Search for Another Location

Airport or City:

Trip Planner

Search our weather history database for the weather conditions in past years. The results will help you decide how hot, cold, wet, or windy it might be!

Date:

Astronomy

Dec. 17, 2012 Rise Set
Actual Time 7:30 AM EST 4:34 PM EST
Civil Twilight 6:58 AM EST 5:06 PM EST
Nautical Twilight 6:22 AM EST 5:41 PM EST
Astronomical Twilight 5:48 AM EST 6:16 PM EST
Moon 10:32 AM EST (12/17) 9:59 PM EST (12/17)
Length of Visible Light 10h 08m
Length of Day
9h 04m
Waxing Crescent, 24% of the Moon is Illuminated
Dec 17
Waxing Crescent
Dec 20
First Quarter
Dec 28
Full
Jan 4
Last Quarter
Jan 11
New

Hourly Weather History & Observations

Time (EST) Temp. Windchill Dew Point Humidity Pressure Visibility Wind Dir Wind Speed Gust Speed Precip Events Conditions
1:56 AM 39.9 °F 31.8 °F 37.9 °F 93% 29.81 in 10.0 mi SSE 15.0 mph - 0.04 in Rain Rain
2:47 AM 39.2 °F 32.5 °F 37.4 °F 93% 29.79 in 10.0 mi SE 10.4 mph - 0.09 in Rain Light Rain
2:56 AM 38.8 °F 33.2 °F 36.9 °F 93% 29.82 in 10.0 mi SE 8.1 mph - 0.09 in Rain Light Rain
3:09 AM 39.2 °F 32.5 °F 37.4 °F 93% 29.79 in 10.0 mi SE 10.4 mph - 0.01 in Rain Light Rain
3:56 AM 38.8 °F 31.2 °F 37.9 °F 97% 29.81 in 9.0 mi SSE 12.7 mph - 0.03 in Rain Light Rain
4:17 AM 39.2 °F 32.0 °F 37.4 °F 93% 29.78 in 10.0 mi SSE 11.5 mph - 0.00 in Rain Light Rain
4:39 AM 39.2 °F 32.0 °F 37.4 °F 93% 29.78 in 10.0 mi SSE 11.5 mph - 0.01 in Rain Light Rain
4:56 AM 38.8 °F 32.1 °F 37.9 °F 97% 29.80 in 10.0 mi SSE 10.4 mph - 0.01 in Rain Light Rain
5:56 AM 38.8 °F 30.8 °F 37.9 °F 97% 29.79 in 10.0 mi SSE 13.8 mph 19.6 mph 0.00 in   Overcast
6:27 AM 39.2 °F 31.6 °F 37.4 °F 93% 29.77 in 10.0 mi SE 12.7 mph - N/A   Overcast
6:56 AM 39.9 °F 35.1 °F 37.9 °F 93% 29.80 in 10.0 mi SE 6.9 mph - N/A   Overcast
7:56 AM 39.9 °F 34.5 °F 37.9 °F 93% 29.82 in 10.0 mi South 8.1 mph - N/A   Overcast
8:56 AM 39.9 °F 32.5 °F 38.8 °F 96% 29.82 in 10.0 mi SE 12.7 mph - N/A   Overcast
9:56 AM 41.9 °F 35.9 °F 39.9 °F 93% 29.82 in 10.0 mi SSE 10.4 mph - N/A   Overcast
10:56 AM 41.9 °F 36.9 °F 39.9 °F 93% 29.82 in 10.0 mi SSE 8.1 mph - N/A   Overcast
11:56 AM 41.9 °F 36.9 °F 39.9 °F 93% 29.80 in 10.0 mi SSE 8.1 mph - N/A   Overcast
12:56 PM 43.0 °F 38.2 °F 39.9 °F 89% 29.78 in 10.0 mi SE 8.1 mph - N/A   Overcast
1:56 PM 43.0 °F 37.7 °F 41.0 °F 93% 29.77 in 10.0 mi SE 9.2 mph - N/A   Overcast
2:56 PM 41.9 °F 36.9 °F 39.9 °F 93% 29.76 in 10.0 mi SE 8.1 mph - N/A   Overcast
3:56 PM 41.9 °F 37.5 °F 39.9 °F 93% 29.74 in 7.0 mi ESE 6.9 mph - N/A   Overcast
4:56 PM 41.9 °F 35.9 °F 39.9 °F 93% 29.75 in 7.0 mi ESE 10.4 mph - N/A   Overcast
7:56 PM 41.0 °F 39.0 °F 38.8 °F 92% 29.72 in 5.0 mi Variable 3.5 mph - 0.08 in Rain Rain
8:38 PM 39.2 °F 35.0 °F 39.2 °F 100% 29.70 in 4.0 mi SE 5.8 mph - 0.11 in Rain Rain
8:56 PM 39.9 °F 35.8 °F 38.8 °F 96% 29.71 in 4.0 mi East 5.8 mph - 0.17 in Rain Light Rain
9:09 PM 39.2 °F 35.9 °F 39.2 °F 100% 29.69 in 2.5 mi ESE 4.6 mph - 0.04 in Rain Light Rain
9:20 PM 39.2 °F 37.0 °F 39.2 °F 100% 29.68 in 4.0 mi ESE 3.5 mph - 0.08 in Rain Light Rain
9:56 PM 38.8 °F 36.5 °F 37.9 °F 97% 29.69 in 4.0 mi ENE 3.5 mph - 0.15 in Rain Light Rain
10:56 PM 38.8 °F 34.6 °F 37.9 °F 97% 29.65 in 4.0 mi East 5.8 mph - 0.02 in Rain Light Rain
11:56 PM 38.8 °F 34.6 °F 37.9 °F 97% 29.61 in 4.0 mi East 5.8 mph - 0.09 in Rain Light Rain